Theta_e
334 334 334 333 333 332 332 334 334 337 335 337 337 342 344 342 348 350 347 357 355 356 357 357 356 356 357 358 357 356 356 355 355 354 354 354 354 354 354 353 350 347 344
333 332 332 331 331 332 333 333 334 336 334 336 335 340 342 345 345 348 346 349 352 353 354 357 356 355 355 355 355 354 353 353 354 353 353 353 354 353 354 353 350 348 345
333 332 328 328 329 333 337 334 337 335 333 334 336 339 340 341 345 347 348 346 349 352 352 355 356 355 355 351 350 352 352 351 352 352 352 351 351 351 352 353 352 349 346
330 330 326 326 328 328 327 326 328 330 330 332 336 335 338 341 341 347 346 346 342 350 351 352 352 354 350 346 347 345 347 349 349 349 349 352 352 351 351 352 352 350 346
328 329 326 326 332 326 325 325 326 328 328 331 331 334 337 337 341 335 343 346 347 348 346 348 350 350 346 345 343 342 341 341 342 342 343 347 350 352 351 351 351 350 348
328 331 326 330 328 323 323 325 330 326 327 328 327 329 333 340 341 343 338 340 342 347 346 346 346 342 344 344 340 337 336 337 337 338 341 341 343 346 350 351 350 349 348
329 330 324 325 327 324 328 329 326 326 322 327 325 326 328 336 341 342 344 345 336 343 347 348 339 342 343 343 338 335 334 333 335 336 336 338 340 342 344 348 349 348 348
327 326 328 324 326 322 327 329 326 320 322 324 320 322 319 325 332 339 339 343 338 338 341 340 339 342 340 338 337 332 331 332 334 337 341 339 339 341 342 343 347 349 347
325 327 327 325 326 324 319 323 322 322 318 321 327 322 317 317 327 331 337 341 345 342 332 337 337 338 340 337 334 333 328 329 333 336 340 342 342 341 343 342 344 347 347
324 324 327 324 324 321 321 320 321 319 319 315 320 323 328 326 319 322 331 333 343 338 340 339 336 336 336 334 331 327 327 327 329 331 333 338 342 343 343 343 343 345 345
325 319 322 322 322 319 321 320 318 322 320 317 320 319 322 324 329 325 324 332 327 324 335 334 335 332 333 332 326 325 323 324 325 326 327 329 332 333 335 335 335 336 340
316 318 318 319 319 318 319 319 320 319 321 320 321 320 319 315 316 322 322 327 323 327 335 334 330 330 329 326 325 322 320 319 319 320 321 324 326 327 328 329 329 329 330
313 316 318 318 317 319 318 320 320 319 319 319 316 319 317 318 320 323 322 322 318 313 322 324 325 325 325 325 322 320 318 316 316 316 316 317 319 320 321 323 324 324 324
312 317 317 315 317 317 317 318 320 316 319 317 316 316 319 317 320 320 319 320 317 313 313 320 323 323 323 322 320 319 315 314 313 313 313 313 314 315 315 315 315 316 316
311 313 315 315 315 315 315 316 312 313 316 315 314 316 315 318 320 316 320 320 317 312 312 315 317 320 321 320 320 318 315 313 312 312 312 312 312 312 313 313 313 313 313
312 311 312 313 311 313 312 311 312 313 311 311 311 312 314 316 318 318 315 318 319 317 312 316 317 316 318 318 319 316 314 313 311 311 311 311 311 311 311 310 309 309 310
310 309 310 309 307 308 308 308 309 310 309 309 311 310 311 314 313 317 318 316 316 316 311 314 315 315 314 314 316 316 316 313 311 310 310 310 310 309 309 307 306 306 306
309 308 308 306 305 305 306 306 306 308 307 305 308 309 308 310 311 313 313 316 316 316 314 311 311 311 311 312 313 312 311 311 310 309 309 309 308 309 307 306 305 304 304
307 306 305 306 305 306 306 306 305 306 306 306 307 307 308 309 309 311 312 314 312 315 314 312 308 311 308 309 309 309 308 309 309 309 308 307 306 306 306 306 306 304 302
304 304 306 306 307 306 306 307 307 307 305 305 306 307 307 307 309 309 312 311 314 312 311 313 309 306 306 308 307 306 305 306 306 308 308 307 307 306 305 305 306 306 302
307 308 308 309 309 309 305 306 306 306 304 304 305 306 307 306 307 306 307 306 310 311 310 309 306 305 303 303 303 304 302 303 305 309 307 306 306 304 304 303 303 303 302
309 309 310 309 308 307 301 303 305 304 305 303 303 303 304 305 305 304 304 304 304 305 306 308 306 303 303 304 303 302 301 301 302 310 305 302 303 301 301 301 301 300 301
310 309 309 309 309 308 300 300 304 305 304 303 303 302 303 303 303 302 302 302 303 303 303 304 306 304 304 304 303 302 303 307 306 308 304 298 300 298 300 301 300 299 299
310 310 310 311 311 307 300 299 302 308 306 304 305 305 305 303 302 302 302 300 302 302 302 303 306 307 306 306 306 306 308 310 309 308 310 298 299 297 299 299 300 299 298
311 310 311 310 311 309 298 299 304 309 309 307 306 302 305 304 298 298 303 301 301 301 304 302 302 301 301 302 305 306 308 308 304 303 306 300 299 296 296 296 298 299 299
311 310 310 311 306 309 297 298 302 311 309 306 307 305 298 300 296 297 306 305 302 299 301 303 304 303 305 304 306 312 309 305 304 301 304 301 299 299 294 296 296 297 298
Wind_Speed
9 11 10 11 11 11 11 12 13 12 15 17 17 20 19 17 14 7 9 13 12 9 15 16 16 18 16 15 14 13 14 14 15 17 19 20 22 22 23 23 23 23 23
8 10 10 10 10 11 12 12 12 12 13 15 16 17 19 18 14 14 12 10 23 27 21 21 18 17 16 14 11 10 10 10 13 16 17 21 22 23 24 24 25 25 25
9 10 10 10 10 11 13 12 12 11 13 12 16 16 15 19 17 16 14 13 13 22 23 22 20 18 16 14 12 9 7 7 9 10 14 18 20 22 25 25 25 25 26
9 9 10 10 10 11 12 12 11 10 12 13 13 13 15 15 18 18 14 13 13 10 16 21 21 19 17 14 11 8 7 5 7 8 9 13 18 20 23 24 26 26 27
12 9 10 11 9 11 10 10 11 13 13 11 14 14 14 15 16 17 19 18 18 14 7 8 15 18 17 14 10 6 4 6 9 11 13 13 14 19 23 26 26 27 27
14 10 12 11 10 12 12 11 13 12 13 13 12 13 14 17 16 15 18 16 6 9 5 15 14 13 18 15 10 4 3 7 11 14 16 16 17 17 19 23 26 27 28
14 11 12 14 13 13 12 13 13 14 12 13 13 13 14 17 18 16 15 5 8 8 13 5 9 5 11 14 13 9 7 9 13 17 19 19 20 20 20 19 24 26 27
14 13 14 13 15 14 14 13 12 11 13 12 13 13 11 14 13 16 15 6 9 8 6 1 7 12 9 9 10 11 10 9 14 20 18 21 23 22 22 21 21 24 25
16 16 15 15 13 12 13 14 13 12 10 13 14 9 7 9 14 10 13 12 11 9 6 7 7 8 7 3 4 11 9 10 15 21 20 14 17 21 21 19 19 21 24
16 17 14 15 16 14 11 12 10 11 11 13 14 12 9 11 8 11 9 6 10 3 10 8 10 6 10 5 11 8 8 11 16 19 24 25 17 9 16 18 19 19 20
12 17 16 17 14 12 14 13 13 13 10 12 12 11 13 11 12 8 12 7 0 4 8 5 8 5 8 9 8 10 11 16 16 18 21 25 26 26 26 21 21 19 7
12 11 14 13 14 13 14 12 12 13 11 12 9 9 9 4 7 7 7 9 7 3 10 9 8 8 7 7 11 14 12 15 16 16 18 19 20 20 22 22 21 22 22
12 13 15 13 11 12 12 11 11 11 10 8 10 11 5 7 7 9 8 9 5 2 7 6 5 7 6 5 9 13 12 16 17 16 17 17 18 18 19 19 18 19 18
10 14 13 13 14 15 11 10 9 9 9 8 9 8 9 7 5 7 5 8 8 2 6 9 3 5 6 5 11 16 11 16 16 16 17 18 17 18 17 17 16 15 13
10 12 14 12 14 12 10 10 6 9 10 9 9 8 7 6 6 5 5 5 5 3 1 2 3 6 6 6 7 10 12 15 17 16 18 17 16 17 17 17 16 15 13
11 12 13 12 10 9 10 8 8 7 9 7 6 8 8 5 7 4 5 3 4 2 1 3 3 4 5 4 9 11 13 16 17 16 16 17 16 17 17 17 16 14 12
11 9 11 10 9 9 9 8 9 8 9 9 7 7 10 7 5 5 4 4 4 1 3 2 3 6 5 7 7 8 7 10 11 16 16 17 18 16 16 15 15 15 15
11 11 10 9 9 8 7 8 10 10 8 9 9 9 8 7 8 5 6 4 5 5 1 1 2 2 4 7 7 7 6 9 9 14 17 17 17 17 14 13 13 14 15
9 9 9 8 8 8 8 8 9 9 8 8 9 9 11 9 6 6 7 5 5 4 3 1 3 2 3 5 7 7 8 6 7 12 14 16 16 18 16 17 13 11 15
8 8 8 7 7 5 6 8 8 7 6 8 8 7 7 7 10 9 7 9 4 4 4 1 4 4 3 4 5 6 5 6 5 6 10 9 11 15 17 18 18 15 13
8 10 10 9 5 6 7 10 9 7 6 7 6 9 7 11 14 14 8 8 8 4 3 1 4 4 5 6 6 3 5 5 1 3 6 6 6 7 9 15 16 17 10
8 8 8 5 4 6 8 9 9 5 6 7 7 8 8 12 10 13 14 14 12 6 5 2 3 6 6 6 5 5 4 2 3 2 6 7 6 7 6 8 17 17 15
4 5 6 6 5 7 9 6 6 2 4 6 6 6 5 6 8 6 8 12 12 12 7 3 7 7 8 7 6 6 2 2 6 5 8 6 7 7 6 7 16 18 18
7 5 4 5 6 9 10 8 7 3 5 4 6 7 6 4 7 7 5 5 6 8 8 3 4 8 9 8 6 4 3 7 6 6 3 4 5 6 5 6 18 19 19
6 7 8 8 8 11 14 12 5 3 6 7 7 9 8 10 12 14 5 4 6 7 8 9 13 15 14 13 7 3 6 3 7 6 6 4 2 3 7 7 7 18 17
7 7 8 9 11 10 14 13 12 5 7 6 7 6 14 12 14 17 10 8 8 6 7 8 10 13 12 9 7 5 5 5 6 4 4 2 1 1 3 6 7 7 6
Wind_Direction
349 334 336 318 327 325 325 332 324 313 306 302 288 287 277 262 247 211 236 143 167 216 208 199 217 234 233 237 241 247 249 242 237 235 229 225 225 224 223 220 214 217 218
349 328 315 332 325 332 338 313 310 311 307 302 291 287 290 292 267 266 264 185 185 197 186 215 202 220 230 232 234 241 252 259 248 243 235 230 227 224 224 223 219 215 217
329 329 327 316 329 344 310 320 319 320 307 301 304 300 278 277 282 259 271 270 193 196 192 194 196 201 218 229 239 243 252 266 270 276 258 241 234 228 226 226 225 220 217
339 331 326 327 354 320 316 322 318 312 309 315 304 290 292 287 275 272 253 255 257 187 186 187 206 197 197 214 226 244 265 291 294 289 281 262 248 239 230 229 227 224 222
331 334 321 321 339 307 309 314 321 321 310 297 301 299 296 279 274 267 270 244 234 224 162 202 198 193 184 186 197 213 267 306 312 304 296 285 270 250 236 229 228 226 222
329 331 317 314 324 314 311 327 311 306 302 298 293 299 294 287 284 279 254 263 262 309 333 203 178 187 180 170 173 138 41 340 323 308 293 280 273 267 259 240 234 227 223
312 321 317 324 319 307 321 302 301 301 304 301 303 303 298 297 268 270 275 309 348 334 235 240 230 200 159 161 116 90 45 1 340 319 298 284 266 260 256 252 236 231 224
326 319 320 316 309 308 299 295 287 301 296 302 304 308 302 302 266 246 257 240 138 222 265 332 301 297 102 137 110 80 41 8 351 336 305 268 256 251 248 247 248 231 222
320 311 313 296 300 304 299 322 310 318 308 307 295 284 299 288 326 299 283 261 216 172 187 178 248 231 96 70 145 97 43 30 18 8 355 314 264 255 250 250 249 244 223
308 291 310 323 310 303 308 293 302 300 298 295 290 288 293 297 289 293 246 347 354 69 179 194 167 112 114 86 86 71 59 49 39 33 31 30 19 286 253 250 248 246 224
312 321 316 303 305 304 301 305 293 292 288 286 292 300 304 309 287 276 278 281 188 166 283 151 170 143 119 127 94 82 73 65 51 46 45 45 47 53 59 67 70 65 81
315 295 309 321 314 311 304 304 290 288 279 285 295 294 305 306 314 305 309 312 301 253 226 178 152 124 112 97 102 92 79 74 63 55 54 52 55 58 61 64 71 77 82
299 335 323 315 309 304 299 296 300 290 285 300 304 299 292 295 298 297 295 296 275 356 345 347 74 90 91 105 110 102 86 77 69 60 59 56 55 57 58 61 62 68 72
323 317 316 311 317 312 321 312 307 304 296 292 289 299 296 286 297 304 310 311 306 7 59 278 57 106 111 114 118 106 85 77 72 65 60 56 50 53 55 56 58 60 59
323 322 310 322 322 313 330 327 318 313 323 320 314 297 296 296 294 315 310 320 311 317 169 103 303 76 111 127 122 95 92 78 70 64 60 53 50 49 50 49 46 47 45
318 315 327 327 326 324 336 330 317 322 321 315 315 315 303 297 292 294 305 316 314 304 47 41 162 122 115 111 116 109 102 83 68 64 65 57 51 55 52 47 42 41 38
322 324 321 339 339 340 341 329 310 315 318 316 311 316 318 314 321 322 312 306 302 273 46 101 65 113 123 122 108 119 99 91 75 64 61 60 51 59 57 46 45 48 44
319 333 342 335 328 321 313 301 324 319 323 324 326 332 339 344 347 332 310 320 312 331 208 141 83 104 93 103 89 74 66 78 84 70 66 64 59 59 61 59 58 48 39
334 337 322 318 322 322 335 333 323 316 320 326 330 329 331 331 337 326 324 316 328 350 337 114 107 90 83 120 103 91 89 110 101 105 91 74 62 53 43 38 36 49 45
313 309 303 300 302 311 313 311 300 312 338 338 326 322 323 23 20 355 340 355 295 318 342 164 117 114 114 115 102 109 95 61 76 83 67 76 75 60 46 35 30 37 55
299 296 304 302 306 352 4 344 347 25 9 347 13 20 51 50 41 33 8 354 3 348 319 89 115 120 130 137 136 109 96 104 30 92 80 46 57 43 35 34 30 29 43
309 317 340 21 57 34 4 8 15 16 11 22 36 30 29 29 33 33 31 37 27 2 353 152 141 146 139 124 119 112 129 144 106 100 86 51 50 46 44 38 35 32 29
342 1 16 18 20 46 6 354 1 28 41 45 42 35 41 33 23 12 27 26 32 32 34 299 153 148 143 137 130 129 198 236 96 122 115 62 50 48 33 39 43 41 38
350 0 0 38 41 49 1 351 335 226 112 59 39 28 41 21 20 343 340 39 20 27 15 17 83 116 119 121 125 138 213 110 109 79 83 92 71 56 39 32 39 40 38
3 359 15 34 47 48 9 358 346 67 97 92 63 37 11 41 356 349 177 83 43 21 26 71 90 101 103 102 102 130 191 207 119 73 49 103 139 91 51 32 26 35 30
9 1 58 50 48 40 29 5 4 359 62 90 92 78 51 22 8 5 4 44 71 33 16 62 82 83 87 82 65 2 18 322 121 96 35 70 140 174 88 25 29 25 12